Flag for Belarus Weather past 2 weeks in Barysaw, Belarus

Now
14 °F

Clear.


Feels Like: 14 °F
Forecast: 12 / 15 °F
Wind: No wind

Location: Minsk

Current Time: Dec 28, 2014 at 8:26:34 PM

Latest Report: Dec 28, 2014 at 8:00 PM


Visibility: 6 mi

Pressure: 29.98 "Hg

Humidity: 92%

Dew point: 12 °F

Location of BarysawLocation

Historic Weather in Barysaw — Graph

°F

Barysaw temperature yesterday

Maximum temperature yesterday: 19 °F (at 1:30 PM)
Minimum temperature yesterday: 7 °F (at 6:00 AM)
Average temperature yesterday: 11 °F

Past Weeks' High & Low Weather Summary

 TemperatureHumidityPressure
High48 °F (Dec 19, 8:30 PM)100% (Dec 14, 10:30 PM)30.21 "Hg (Dec 14, 10:30 PM)
Low0 °F (Dec 28, 7:30 AM)64% (Dec 25, 5:00 PM)29.27 "Hg (Dec 23, 12:30 AM)
Average32 °F93%29.75 "Hg
* Reported Dec 13 7:00 PM — Dec 28 7:00 PM, Barysaw, Weather by CustomWeather, © 2014

Note: Actual official high and low records may vary slightly from our data, if they occured in-between our weather recording intervals... More about our weather records

Advertising

Barysaw weather history for previous 24 hours

 ConditionsComfort  
Time TempWeatherWind HumidityBarometerVisibility
7:00 PM
Dec 28
16 °FClear.1 mph93%29.98 "Hg6 mi
6:30 PM14 °FClear.No wind92%29.98 "Hg6 mi
6:00 PM16 °FClear.1 mph93%29.98 "Hg6 mi
5:30 PM14 °FClear.1 mph92%29.98 "Hg6 mi
5:00 PM14 °FClear.No wind92%29.98 "Hg6 mi
4:30 PM16 °FClear.1 mph93%29.95 "Hg6 mi
4:00 PM16 °FSunny.No wind93%29.95 "Hg10 mi
3:30 PM16 °FSunny.No wind86%29.95 "Hg10 mi
3:00 PM18 °FSunny.1 mph79%29.95 "Hg10 mi
2:30 PM18 °FSunny.1 mph86%29.95 "Hg10 mi
2:00 PM16 °FSunny.1 mph86%29.95 "Hg10 mi
1:30 PM14 °FSunny.No wind92%29.95 "Hg10 mi
1:00 PM14 °FSunny.No wind85%29.95 "Hg10 mi
12:30 PM12 °FClear.No wind85%29.95 "Hg6 mi
12:00 PM10 °FClear.No wind92%29.95 "Hg5 mi
11:30 AM9 °FClear.No wind85%29.95 "Hg5 mi
11:00 AM3 °FSunny.No wind85%29.95 "Hg10 mi
10:00 AM0 °FClear.No wind92%29.95 "Hg10 mi
9:30 AM0 °FClear.No wind84%29.95 "Hg10 mi
9:00 AM0 °FClear.No wind84%29.95 "Hg10 mi
8:30 AM0 °FClear.No wind92%29.95 "Hg10 mi
8:00 AM0 °FClear.No wind92%29.95 "Hg10 mi
7:52 AM0 °FClear.No wind92%29.95 "HgN/A
7:30 AM0 °FPassing clouds.No wind92%29.95 "HgN/A
6:30 AM1 °FClear.No wind85%29.95 "Hg10 mi
6:00 AM3 °FClear.No wind85%29.95 "Hg10 mi
5:30 AM1 °FClear.No wind92%29.95 "Hg10 mi
5:00 AM1 °FClear.No wind92%29.95 "Hg10 mi
4:30 AM3 °FClear.No wind85%29.95 "Hg10 mi
4:00 AM3 °FClear.1 mph85%29.95 "Hg10 mi
3:30 AM3 °FClear.No wind92%29.95 "Hg10 mi
3:00 AM3 °FClear.No wind92%29.95 "Hg10 mi
2:30 AM3 °FClear.1 mph92%29.95 "Hg10 mi
2:00 AM5 °FClear.No wind92%29.95 "Hg10 mi
1:30 AM5 °FClear.1 mph92%29.98 "Hg10 mi
1:00 AM5 °FClear.1 mph85%29.98 "Hg10 mi
12:30 AM7 °FClear.No wind92%29.98 "Hg10 mi
12:00 AM7 °FClear.No wind92%29.98 "Hg10 mi
11:30 PM
Dec 27
7 °FPassing clouds.No wind92%30.01 "HgN/A
11:00 PM9 °FClear.No wind100%29.98 "Hg10 mi
10:30 PM9 °FClear.No wind92%30.01 "Hg10 mi
10:00 PM12 °FClear.No wind92%30.01 "Hg10 mi
9:30 PM10 °FClear.No wind100%30.01 "Hg10 mi
9:00 PM12 °FClear.No wind100%30.01 "Hg10 mi
8:30 PM10 °FClear.No wind100%30.01 "Hg10 mi
8:00 PM10 °FClear.No wind92%30.01 "Hg10 mi
Weather by CustomWeather, © 2014

See weather overviewHow to use our weather pages